FLOCK 3P-58

Last updated on Wed Feb 14 2018 16:20:23 GMT+0000 (Coordinated Universal Time)

1 41977U 17008AF 18044.92172840 .00002090 00000-0 89402-4 0 9992 2 41977 97.4660 110.4330 0009574 72.0472 288.1808 15.23917490 55333
UTC large
Height (km)
Speed (km/s)
/
Latitude / Longitude
Inclination (degrees)
Orbital Period (minutes)
Azimuth
Elevation
Range (km)
Doppler Factor

Next 0 passes for location: London (51.5072 / 0.1276)

Sorry there are no passes over London.
FLOCK 3P-58